This is the latest recevied weather packets stored in our database for station/object N8XE-13. If no packets are shown the sender has not sent any weather packets the latest 10 day(s).
| Time | Temp. | Humidity | Pressure | Rain* | Wind** | Luminosity | Snow |
|---|---|---|---|---|---|---|---|
| 1778092170 | 14.44° C | 52% | - | 0 mm | - | - | - |
| 1778091867 | 14.44° C | 52% | - | 0 mm | - | - | - |
| 1778091564 | 15° C | 52% | - | 0 mm | - | - | - |
| 1778091262 | 14.44° C | 52% | - | 0 mm | - | - | - |
| 1778090959 | 13.89° C | 54% | - | 0 mm | - | - | - |
| 1778090654 | 14.44° C | 56% | - | 0 mm | - | - | - |
| 1778090352 | 14.44° C | 54% | - | 0 mm | - | - | - |
| 1778090049 | 13.89° C | 52% | - | 0 mm | - | - | - |
| 1778089745 | 13.89° C | 53% | - | 0 mm | - | - | - |
| 1778089443 | 14.44° C | 53% | - | 0 mm | - | - | - |
| 1778089140 | 14.44° C | 55% | - | 0 mm | - | - | - |
| 1778088837 | 14.44° C | 51% | - | 0 mm | - | - | - |
| 1778088534 | 14.44° C | 53% | - | 0 mm | - | - | - |
| 1778088230 | 14.44° C | 53% | - | 0 mm | - | - | - |
| 1778087928 | 13.89° C | 53% | - | 0 mm | - | - | - |
| 1778087625 | 13.89° C | 53% | - | 0 mm | - | - | - |
| 1778087322 | 13.89° C | 52% | - | 0 mm | - | - | - |
| 1778087018 | 13.33° C | 57% | - | 0 mm | - | - | - |
| 1778086712 | 12.78° C | 58% | - | 0 mm | - | - | - |
| 1778086410 | 13.89° C | 58% | - | 0 mm | - | - | - |
| 1778086106 | 13.33° C | 57% | - | 0 mm | - | - | - |
| 1778085802 | 13.33° C | 56% | - | 0 mm | - | - | - |
| 1778085500 | 13.33° C | 58% | - | 0 mm | - | - | - |
| 1778085194 | 13.89° C | 57% | - | 0 mm | - | - | - |
| 1778084890 | 12.78° C | 58% | - | 0 mm | - | - | - |
* Rain latest hour (hover to see other rain measurements)
** Current wind speed in m/s (hover to see current wind gust speed)